Theta_e
310 310 310 310 309 309 308 302 296 309 305 296 293 292 297 301 302 302 302 299 298 296 297 296 295 295 298 301 302 297 296 294 290 291 296 298 296 292 291 287 283 283 284 287
310 310 309 308 309 310 307 298 306 314 305 289 288 295 300 302 300 299 301 300 301 302 298 294 297 298 301 300 299 297 297 292 288 290 293 295 294 293 290 289 288 284 287 287
309 309 307 307 309 311 308 304 299 304 298 296 294 294 296 297 301 301 301 300 302 300 298 299 296 297 300 300 300 299 299 291 290 287 289 291 290 292 291 291 287 285 288 290
309 307 307 308 309 310 307 301 298 303 293 292 294 295 296 296 297 302 302 300 300 298 294 295 295 298 297 299 300 298 296 291 290 289 290 290 290 290 290 289 290 289 289 288
307 307 307 308 309 310 305 299 298 296 296 297 294 293 297 297 298 300 299 299 300 301 296 297 295 297 295 295 298 295 293 288 288 288 289 289 289 290 290 290 290 289 289 290
306 306 307 307 309 311 305 305 303 301 290 295 294 293 296 298 301 301 301 301 299 297 300 300 298 298 297 298 297 291 290 287 286 283 285 285 284 288 290 290 291 293 289 295
305 306 307 307 309 309 308 308 304 297 287 291 293 298 300 299 300 299 301 302 300 301 303 301 300 298 297 296 293 293 286 285 283 284 281 281 290 292 292 291 291 293 293 294
307 307 307 307 309 310 312 310 305 297 286 292 294 298 299 300 301 300 301 302 302 304 298 293 291 289 290 290 291 290 290 286 281 284 282 284 288 289 291 291 292 295 294 295
306 306 306 307 308 309 311 311 307 303 293 292 298 299 299 295 295 296 299 303 303 298 289 289 286 286 289 287 291 292 289 286 287 281 282 280 288 291 297 296 289 296 297 295
305 305 305 306 307 309 312 311 309 307 298 302 302 299 298 299 297 295 297 299 299 298 288 286 287 288 289 286 284 283 286 283 284 277 284 285 290 294 296 287 290 296 297 296
305 305 305 306 307 309 313 311 312 309 303 304 307 304 300 300 300 296 299 298 297 291 289 288 287 287 288 288 289 287 287 285 282 279 280 282 292 295 292 298 297 297 297 297
302 303 305 307 307 309 311 311 314 312 306 305 308 309 309 309 305 301 299 301 298 297 291 287 286 286 286 284 287 290 287 289 288 287 288 294 295 297 299 298 297 298 298 299
305 305 306 307 309 309 312 312 309 307 302 304 306 305 310 310 309 310 301 297 301 297 296 290 287 287 287 286 286 288 291 291 289 290 293 292 294 297 298 299 299 299 300 301
305 306 306 308 309 309 311 310 307 305 299 291 299 308 306 309 310 309 307 302 299 297 295 289 287 288 290 286 290 289 292 292 290 290 293 295 296 298 300 301 300 300 300 300
306 307 308 307 308 310 311 309 308 306 305 293 295 303 304 306 307 304 304 302 300 296 292 288 290 288 289 288 289 288 293 292 291 291 297 297 297 298 299 300 301 302 300 297
305 306 307 308 307 306 306 303 307 305 304 298 292 298 299 302 305 304 303 302 299 298 296 290 291 293 292 287 288 295 295 297 298 297 298 298 299 299 301 301 302 301 299 294
305 306 306 307 306 307 299 298 303 303 303 296 290 291 297 298 301 299 300 301 298 298 293 289 290 292 293 287 288 296 296 298 299 299 299 298 299 300 299 297 291 290 289 289
304 305 305 305 305 305 304 305 304 303 298 295 288 288 291 298 293 292 297 294 297 295 292 291 290 291 291 289 292 293 294 296 298 298 300 299 293 290 288 289 289 288 289 290
303 304 304 305 304 301 303 304 302 303 299 290 287 288 288 296 292 291 293 295 289 294 290 291 294 287 287 287 287 288 290 291 293 292 289 289 288 287 288 289 288 287 287 289
303 303 299 293 300 303 303 300 295 294 293 295 287 291 289 296 288 288 289 290 287 288 290 293 288 288 286 285 287 288 289 290 294 293 287 287 287 287 287 288 289 288 288 289
300 296 294 300 302 299 291 288 288 291 287 292 290 289 290 295 290 289 289 287 287 286 288 289 287 284 284 287 288 289 289 290 291 291 291 291 290 288 287 288 289 289 290 289
299 299 299 296 293 289 288 286 287 286 285 288 289 289 293 290 295 290 288 287 286 285 289 286 284 282 284 288 288 289 290 291 291 292 291 291 290 291 290 290 289 287 285 284
297 293 289 292 288 284 280 284 286 285 286 287 286 287 287 290 291 287 287 286 286 287 285 284 282 284 289 288 288 288 289 290 290 290 290 289 286 285 283 284 284 284 284 284
287 287 284 283 285 284 284 285 285 285 285 286 286 286 287 286 287 285 286 284 285 283 281 280 283 287 286 288 288 289 289 286 286 285 285 284 283 282 282 282 282 281 283 282
286 286 280 281 283 285 285 285 285 286 287 287 286 286 287 285 285 284 284 281 278 278 279 284 285 286 285 284 285 285 285 281 284 286 284 281 280 279 282 281 281 282 281 281
286 284 283 284 284 284 285 285 285 288 286 286 286 284 284 282 283 282 280 279 276 280 284 286 287 286 287 287 286 286 287 287 287 285 283 283 281 281 282 282 282 280 280 279
284 283 285 285 285 284 285 285 286 288 286 284 284 282 280 283 279 279 283 280 283 285 286 288 289 287 287 287 287 284 285 286 285 284 284 282 280 280 281 280 281 281 282 282
Wind_Speed
24 20 19 18 18 19 11 4 3 1 3 5 1 5 6 3 4 3 4 4 4 5 3 4 4 7 1 1 1 5 1 4 3 1 0 1 1 3 4 4 4 2 0 6
24 23 21 19 22 24 6 5 2 1 4 5 1 2 2 2 2 1 2 3 3 2 5 4 2 3 2 1 3 6 5 1 3 3 2 1 2 3 4 5 3 5 4 4
23 23 23 21 26 30 3 4 4 3 5 1 9 5 3 1 3 2 2 5 3 4 3 4 5 3 2 2 3 7 5 3 5 8 3 1 4 4 4 3 3 4 7 4
23 23 24 23 25 26 1 1 3 3 4 2 5 4 6 5 2 1 2 3 2 6 4 3 3 2 2 3 1 4 3 4 2 1 1 2 2 4 8 7 5 7 4 8
23 23 23 21 20 17 1 5 6 4 2 6 7 1 6 7 2 1 1 6 3 2 6 7 9 7 4 5 2 2 2 4 2 4 1 3 3 5 7 6 3 10 4 11
22 21 19 20 23 16 4 2 2 7 4 4 6 6 7 8 6 1 3 5 5 3 1 3 4 6 9 5 5 4 2 7 3 4 3 3 6 10 10 6 5 7 9 8
20 19 19 19 25 14 3 3 5 6 2 3 7 8 4 6 6 6 3 3 5 1 12 9 9 12 13 13 10 3 5 5 2 2 1 2 4 2 2 9 6 12 4 4
17 17 18 20 24 20 1 3 5 5 3 3 4 6 5 6 4 4 4 4 2 10 3 5 5 5 6 5 7 7 3 5 4 3 3 6 5 3 6 6 6 10 12 5
15 16 18 18 19 18 2 1 3 5 9 7 7 6 5 5 4 3 3 5 4 5 4 4 4 3 4 1 1 1 4 6 4 3 2 5 5 2 3 3 5 1 8 6
14 14 16 19 21 18 3 2 2 5 4 1 6 6 7 5 5 5 5 5 1 3 3 4 3 3 1 3 4 2 3 3 3 3 4 8 6 1 2 3 5 1 6 7
11 11 15 19 21 16 4 2 1 4 3 2 1 5 7 4 2 7 6 5 2 3 5 3 4 3 4 2 3 5 6 6 3 3 1 7 5 2 5 5 2 2 6 10
11 12 14 17 19 17 5 4 2 1 6 3 0 3 3 2 6 8 0 4 4 5 6 1 3 3 1 2 3 1 3 5 4 8 6 4 6 5 2 2 3 3 4 6
6 9 14 15 17 14 6 4 4 5 4 3 3 4 5 6 4 2 7 2 5 3 2 5 3 4 4 4 6 1 3 4 3 1 2 8 10 9 8 6 11 6 7 6
9 9 14 15 15 11 7 4 2 4 4 7 3 3 4 7 4 2 2 10 7 7 2 4 4 3 4 3 2 3 3 6 4 5 8 5 8 9 9 8 5 8 5 6
10 10 18 18 17 17 14 6 2 3 5 6 2 2 5 8 5 11 10 11 7 3 3 3 3 3 5 2 1 3 6 7 5 6 9 4 6 4 3 4 6 6 6 3
9 11 12 12 10 13 5 3 1 6 1 7 3 3 5 6 7 13 9 5 4 3 4 2 1 2 3 4 3 8 4 5 5 6 1 4 5 7 5 6 6 2 3 5
12 13 12 12 13 6 5 5 3 8 2 6 4 3 4 4 4 4 4 4 3 3 3 2 3 2 2 3 4 4 7 7 5 4 2 5 1 4 7 5 8 14 16 16
13 12 18 23 24 15 5 5 9 5 7 6 5 2 3 5 3 3 3 3 2 5 3 2 2 2 1 3 3 10 10 12 4 9 4 3 6 8 9 10 12 17 16 14
8 5 5 6 9 5 2 11 9 4 6 5 3 6 4 3 2 1 2 2 3 1 1 1 3 1 3 4 9 10 10 6 10 7 10 11 11 12 12 13 14 15 10 10
6 8 6 4 2 8 7 7 7 8 5 5 4 1 2 1 0 2 2 2 2 2 2 2 2 2 4 5 5 5 8 9 4 2 6 9 10 12 13 13 10 8 5 3
5 5 3 3 7 3 5 5 6 3 4 3 1 2 3 3 3 2 1 2 1 2 2 3 2 2 2 3 7 7 8 11 14 14 14 12 11 10 10 6 4 3 5 4
2 5 4 3 6 5 8 3 2 3 3 2 2 0 2 1 1 3 0 3 1 3 2 1 2 2 2 2 5 6 7 8 10 11 12 10 10 8 6 5 4 2 3 3
3 6 6 4 4 7 5 5 2 2 0 1 1 2 1 1 2 3 2 3 2 2 2 1 2 6 5 6 5 5 3 4 7 6 4 4 3 4 3 2 2 3 3 3
6 4 5 3 2 3 1 2 2 1 1 1 2 2 2 0 3 1 3 1 1 3 4 3 4 3 5 6 3 4 2 2 4 5 4 3 4 5 4 4 3 4 5 5
5 4 4 4 2 3 2 1 2 1 1 1 2 2 2 2 3 1 3 2 1 1 2 2 4 6 3 3 3 3 3 1 1 1 2 3 4 4 5 5 4 4 5 6
4 6 3 1 2 2 2 2 2 1 1 1 2 2 2 2 2 2 2 4 3 3 2 3 5 5 4 4 3 3 1 3 2 1 2 3 5 4 4 4 5 5 4 5
4 3 3 2 4 3 2 2 2 2 2 1 1 2 1 2 2 1 1 2 3 4 3 3 5 5 3 5 3 1 1 4 5 4 6 4 4 4 7 11 12 11 9 9
Wind_Direction
171 174 168 180 162 170 172 143 181 262 121 72 42 153 194 197 277 162 215 116 107 145 146 136 160 180 198 129 192 154 155 123 132 154 309 304 111 138 136 124 185 64 295 273
172 167 171 176 164 172 146 151 168 354 106 131 282 266 191 176 303 307 130 100 112 94 137 113 142 143 104 156 140 161 187 45 88 20 350 355 212 136 107 104 100 189 163 260
170 168 168 175 177 192 112 135 117 1 53 41 136 145 161 141 221 247 103 119 86 103 98 36 156 132 47 86 98 57 86 108 160 187 191 161 174 174 168 139 140 169 233 268
166 173 166 180 186 192 78 33 183 169 180 293 131 128 163 148 271 207 51 80 155 148 120 97 127 128 122 41 122 58 102 146 117 96 18 251 223 180 186 204 178 190 225 214
174 176 171 178 179 154 272 137 129 34 86 128 115 159 193 149 207 209 119 123 133 139 149 181 188 145 189 184 64 83 16 158 148 183 347 13 278 237 205 230 228 257 250 268
174 176 170 173 161 156 168 197 61 107 312 97 121 196 182 179 144 37 54 144 118 96 103 86 65 76 77 102 136 128 102 138 131 241 2 12 319 222 197 190 205 198 215 241
174 169 168 165 169 180 152 176 110 93 200 135 179 174 170 154 184 154 63 79 104 178 129 113 68 60 70 63 47 54 127 97 63 162 28 252 243 164 179 219 233 217 261 217
166 163 164 171 178 186 177 152 117 120 137 178 139 152 124 98 66 72 85 7 349 145 64 72 56 356 23 21 37 26 49 119 96 154 207 304 288 195 181 182 280 210 222 199
151 161 168 172 178 176 132 133 119 111 123 236 159 143 176 143 124 46 70 33 82 66 74 77 129 188 209 230 76 44 57 64 106 134 176 230 246 259 196 167 284 280 203 158
143 154 163 167 171 174 126 165 124 100 121 229 140 161 162 133 100 102 119 160 183 53 74 85 145 206 215 190 172 199 39 13 163 147 227 283 253 291 169 106 255 215 188 176
130 141 159 163 165 167 134 90 52 113 107 296 199 160 135 118 125 136 174 83 326 52 77 132 182 166 207 145 161 181 178 155 180 109 179 272 186 130 167 221 259 240 204 198
120 131 147 157 159 171 159 98 22 30 83 148 158 94 64 255 161 127 321 143 156 166 92 119 115 141 104 123 235 342 244 195 177 194 218 235 218 235 227 171 249 242 227 238
110 121 135 146 157 157 160 122 164 68 104 38 57 16 341 29 14 199 118 298 145 116 85 144 131 137 136 161 233 201 237 170 209 113 229 234 234 262 258 238 241 241 231 247
52 91 113 130 134 143 154 99 113 78 121 113 283 315 19 329 351 65 66 121 80 96 80 105 133 141 195 189 172 180 202 149 178 262 276 275 260 236 254 265 246 257 249 237
67 70 91 99 113 104 80 66 20 223 121 142 201 316 358 355 38 77 78 106 109 117 86 99 182 118 124 72 59 256 185 186 176 228 240 196 249 280 274 256 260 262 225 193
53 68 87 100 100 90 71 80 3 21 15 99 107 278 4 349 29 59 55 50 75 87 126 170 133 28 108 138 200 257 193 215 213 254 67 220 262 277 264 274 310 303 166 136
63 63 72 93 128 106 95 146 294 340 358 86 69 8 334 339 17 43 25 28 68 80 102 70 117 113 105 120 196 328 358 307 296 258 248 280 215 311 5 61 83 89 93 96
56 75 87 87 91 112 40 3 353 330 89 67 109 282 25 352 37 59 352 54 34 25 97 98 114 99 94 223 311 340 340 336 44 357 307 4 77 59 65 85 98 92 91 85
25 49 101 48 35 47 287 325 321 33 92 110 84 133 205 16 55 62 44 34 72 303 122 114 128 117 209 348 322 328 332 305 293 26 50 58 72 83 78 87 88 88 79 90
17 38 41 40 343 313 313 2 27 18 354 36 83 91 119 59 25 43 78 357 128 165 230 108 127 114 102 5 348 343 358 5 2 117 58 68 75 77 81 80 82 85 98 154
37 43 60 248 318 50 34 56 60 338 36 23 81 137 125 341 115 144 356 155 110 173 226 188 178 113 28 33 55 37 45 57 67 78 77 81 90 93 91 90 102 137 210 243
116 121 99 40 33 45 71 40 10 51 179 344 103 48 72 44 79 102 275 129 97 207 121 133 174 143 181 42 51 59 63 69 81 88 97 104 117 134 154 178 215 260 311 330
41 48 55 44 339 62 107 162 188 165 181 345 66 62 66 51 58 73 103 140 205 88 172 199 89 132 94 99 89 73 69 92 94 97 103 104 77 45 33 14 13 317 309 313
61 53 58 50 76 68 63 47 77 91 110 87 74 73 84 354 65 63 136 97 126 190 191 185 156 135 136 138 156 156 161 51 87 72 50 44 33 13 8 9 350 346 349 344
59 35 68 58 102 60 59 39 81 357 120 77 77 62 59 32 89 37 111 109 173 178 173 111 124 141 92 147 200 180 188 172 119 105 46 6 7 8 349 3 349 352 339 344
60 43 75 35 75 57 48 26 48 8 60 43 47 87 83 86 116 128 178 148 192 159 172 125 132 142 180 222 210 192 248 223 218 66 47 32 29 18 353 347 29 4 346 339
51 33 13 37 59 60 48 32 37 356 59 62 73 94 136 100 75 140 171 187 165 157 146 147 158 166 221 233 264 196 101 57 55 54 45 44 40 51 34 19 0 356 359 354